[[{"header":{"parameterUnit":"m.s-1","parameterCategory":1,"la1":30.2991,"la2":30.254,"lo1":-89.0895,"lo2":-89.0444,"dy":0.0017,"dx":0.0017,"nx":28,"ny":28,"refTime":"2025-01-29T03:00:00:Z","depth":0,"parameterNumber":2,"parameterNumberName":"U-component_of_WINDS"},"data":[0,0,0,0,0,0,0,0,0,0,0,0,0,0,0,0,0,0,0,0,0,0,0,0,0,0,0,0,0,0,0,0,0,0,0,0,0,0,0,0,0,0,0,0,0,0,0,0,0,0,0,0,0,0,0,0,0,0,-3.22,-3.22,0,-3.2213,-3.2213,-3.2213,-3.213,-3.2127,-3.2125,-3.2123,-3.2138,-3.214,-3.2143,0,0,0,0,0,0,0,0,0,0,0,0,0,-3.2106,-3.2108,-3.22,-3.22,-3.22,-3.2213,-3.2213,-3.2213,-3.213,-3.2127,-3.2124,-3.2122,-3.2137,-3.214,-3.2143,0,0,0,0,0,0,0,0,0,0,0,0,0,-3.2136,-3.2109,-3.22,-3.216,-3.2157,-3.2213,-3.2213,-3.2213,-3.2131,-3.2127,-3.2124,-3.212,-3.2136,-3.214,-3.2143,-3.2239,0,0,-3.2155,-3.2157,0,0,0,0,0,0,0,0,-3.2134,-3.2139,-3.2166,-3.2163,-3.216,-3.2166,-3.2185,-3.2222,-3.2132,-3.2141,-3.2123,-3.2119,-3.215,-3.2153,-3.2163,-3.2239,-3.224,-3.2156,-3.2158,-3.216,-3.2161,0,0,0,0,0,0,0,-3.2132,-3.2138,-3.2205,-3.2167,-3.2163,-3.2143,-3.2143,-3.2192,-3.2165,-3.214,-3.2134,-3.2136,-3.2148,-3.2159,-3.2163,-3.224,-3.2156,-3.2159,-3.2162,-3.2163,-3.2395,-3.2398,0,0,0,0,0,0,-3.2135,-3.2137,-3.2205,-3.2206,-3.2138,-3.2147,-3.2148,-3.2168,-3.2164,-3.2161,-3.2139,-3.2132,-3.2154,-3.2158,-3.2163,-3.2273,-3.216,-3.2163,-3.2166,-3.2391,-3.2396,-3.24,0,0,0,0,0,0,-3.2133,-3.2142,-3.2204,-3.217,-3.2176,-3.2153,-3.2176,-3.217,-3.2181,-3.2164,-3.2159,-3.2156,-3.2152,-3.2157,-3.222,-3.2272,-3.2165,-3.2169,-3.2386,-3.2392,-3.2398,-3.2495,0,0,0,0,0,0,-3.2131,-3.2142,-3.2177,-3.2171,-3.2178,-3.2261,-3.2179,-3.2172,-3.2188,-3.2179,-3.2178,-3.2175,-3.2149,-3.2215,-3.2224,-3.2276,-3.2172,-3.2382,-3.2389,-3.2396,-3.2487,-3.2504,-3.2518,0,0,0,0,0,-3.2128,-3.2205,-3.2179,-3.2188,-3.2222,-3.2264,-3.2268,-3.2237,-3.2192,-3.2228,-3.2217,-3.2175,-3.2266,-3.2222,-3.2232,-3.2286,-3.2378,-3.2387,-3.2395,-3.248,-3.25,-3.2517,0,0,0,0,0,0,-3.2218,-3.2203,-3.2175,-3.2252,-3.226,-3.225,-3.2294,-3.2259,-3.228,-3.2271,-3.2232,-3.2233,-3.2302,-3.23,-3.2252,-3.2377,-3.2314,-3.2325,-3.2376,-3.2394,-3.2409,-3.2408,-3.2175,0,0,0,0,0,-3.2247,-3.2282,-3.2267,-3.2337,-3.2342,-3.2318,-3.2335,-3.231,-3.2317,-3.232,-3.2314,-3.2323,-3.2353,-3.2374,-3.2401,-3.2487,-3.2485,-3.2529,-3.2544,-3.2557,-3.2566,-3.2611,-3.263,-3.2428,-3.2428,-3.2428,0,0,-3.2307,-3.2303,-3.2328,-3.2355,-3.2358,-3.2396,-3.2321,-3.2364,-3.2391,-3.2327,-3.2385,-3.2381,-3.2388,-3.2463,-3.2496,-3.2464,-3.2622,-3.2568,-3.2578,-3.258,-3.2622,-3.2641,-3.2658,-3.2434,-3.2433,-3.2432,0,0,-3.2435,-3.2436,-3.2494,-3.2498,-3.2504,-3.2487,-3.2501,-3.2497,-3.2491,-3.2549,-3.2501,-3.2534,-3.2587,-3.2594,-3.2605,-3.2736,-3.2698,-3.2746,-3.2825,-3.2869,-3.2885,-3.2899,-3.2945,-3.2962,-3.2756,-3.2756,-3.2757,0,-3.2509,-3.2563,-3.2528,-3.2574,-3.2587,-3.253,-3.2588,-3.2594,-3.2609,-3.262,-3.2584,-3.2649,-3.265,-3.2725,-3.2757,-3.2768,-3.2783,-3.2745,-3.2886,-3.2899,-3.2912,-3.2955,-3.2973,-3.2762,-3.2761,-3.2761,-3.276,0,-3.2653,-3.2692,-3.2738,-3.2752,-3.2771,-3.2823,-3.2796,-3.2819,-3.2793,-3.278,-3.284,-3.2839,-3.2865,-3.2881,-3.2857,-3.2953,-3.2933,-3.2892,-3.2828,-3.2937,-3.2978,-3.2994,-3.277,-3.2768,-3.2767,-3.2765,0,0,-3.2838,-3.2832,-3.285,-3.2855,-3.2858,-3.2887,-3.2937,-3.2961,-3.2981,-3.2994,-3.3034,-3.3081,-3.3043,-3.3055,-3.3031,-3.307,-3.3173,-3.3024,-3.3023,-3.3051,-3.3279,-3.3309,-3.3328,-3.3148,-3.3151,-3.3154,-3.3278,0,-3.2962,-3.3045,-3.3015,-3.3101,-3.3135,-3.3082,-3.3125,-3.3132,-3.3121,-3.315,-3.3139,-3.3172,-3.312,-3.3127,-3.3163,-3.3153,-3.3218,-3.3144,-3.3185,-3.3187,-3.3184,-3.3349,-3.3381,-3.3498,-3.3293,-3.3296,-3.3298,0,-3.3118,-3.3136,-3.3224,-3.322,-3.3234,-3.3273,-3.3293,-3.3321,-3.3327,-3.3317,-3.3331,-3.3298,-3.3347,-3.3284,-3.335,-3.33,-3.3316,-3.3313,-3.3317,-3.3319,-3.3248,-3.3355,-3.3535,-3.3552,-3.3323,-3.3321,-3.3319,0,-3.3242,-3.3289,-3.3347,-3.3354,-3.3351,-3.338,-3.338,-3.3383,-3.34,-3.3417,-3.3428,-3.3452,-3.3464,-3.3484,-3.3458,-3.3415,-3.3529,-3.3463,-3.3521,-3.3522,-3.3547,-3.3545,-3.3731,-3.3559,-3.3559,-3.3559,-3.3558,0,-3.3384,-3.344,-3.3403,-3.3439,-3.3501,-3.3466,-3.3528,-3.3523,-3.3526,-3.356,-3.3516,-3.3549,-3.3515,-3.3545,-3.3526,-3.3584,-3.359,-3.3583,-3.3577,-3.3586,-3.3587,-3.3595,-3.3586,-3.3563,-3.3562,-3.3561,-3.3561,0,-3.3532,-3.351,-3.3571,-3.3563,-3.3562,-3.3608,-3.3601,-3.3634,-3.3621,-3.3665,-3.3674,-3.3653,-3.3687,-3.3664,-3.3698,-3.3685,-3.376,-3.3743,-3.3758,-3.3753,-3.3811,-3.3806,-3.4007,-3.4032,-3.3846,-3.3848,-3.3849,0,-3.3623,-3.3665,-3.3662,-3.3681,-3.3684,-3.3716,-3.3732,-3.37,-3.3719,-3.373,-3.3762,-3.3792,-3.3813,-3.3869,-3.3858,-3.3884,-3.3866,-3.3935,-3.387,-3.3878,-3.3866,-3.3863,-3.3867,-3.3948,-3.395,-3.3952,-3.3954,0,-3.3787,-3.3774,-3.3798,-3.382,-3.3841,-3.3856,-3.3868,-3.3887,-3.3855,-3.3878,-3.3911,-3.3928,-3.3962,-3.3992,-3.4014,-3.4014,-3.3979,-3.3975,-3.3989,-3.3998,-3.4004,-3.4001,-3.3792,-3.397,-3.3968,-3.3967,-3.3966,-3.3966,-3.3908,-3.3943,-3.3945,-3.3975,-3.398,-3.3993,-3.4023,-3.4014,-3.404,-3.4065,-3.4045,-3.4085,-3.409,-3.4115,-3.412,-3.4151,-3.4123,-3.4144,-3.4149,-3.4155,-3.4162,-3.4001,-3.4155,-3.4154,-3.4154,-3.4154,-3.4153,0,-3.4068,-3.4067,-3.4095,-3.4112,-3.4136,-3.41,-3.4112,-3.4133,-3.4169,-3.4176,-3.4199,-3.4237,-3.4266,-3.4257,-3.4282,-3.4309,-3.4293,-3.4316,-3.4313,-3.4314,-3.4187,-3.4171,-3.4329,-3.4329,-3.4328,-3.4328,-3.4328,-3.4328,-3.4154,-3.421,-3.4198,-3.4256,-3.4255,-3.4293,-3.4302,-3.4313,-3.4319,-3.4363,-3.4387,-3.4381,-3.4382,-3.4407,-3.4432,-3.4429,-3.444,-3.4469,-3.446,-3.4341,-3.4323,-3.4307,-3.4291,-3.4472,-3.4472,-3.4584,-3.4585,-3.4586]},{"header":{"parameterUnit":"m.s-1","parameterCategory":1,"la1":30.2991,"la2":30.254,"lo1":-89.0895,"lo2":-89.0444,"dy":0.0017,"dx":0.0017,"nx":28,"ny":28,"refTime":"2025-01-29T03:00:00:Z","depth":0,"parameterNumber":3,"parameterNumberName":"V-component_of_WINDS"},"data":[0,0,0,0,0,0,0,0,0,0,0,0,0,0,0,0,0,0,0,0,0,0,0,0,0,0,0,0,0,0,0,0,0,0,0,0,0,0,0,0,0,0,0,0,0,0,0,0,0,0,0,0,0,0,0,0,0,0,1.0597,1.0598,0,1.0661,1.0662,1.0663,1.0677,1.0676,1.0676,1.0675,1.0743,1.0745,1.0747,0,0,0,0,0,0,0,0,0,0,0,0,0,1.049,1.0492,1.0597,1.0598,1.0599,1.0661,1.0662,1.0663,1.0677,1.0676,1.0675,1.0675,1.0742,1.0745,1.0747,0,0,0,0,0,0,0,0,0,0,0,0,0,1.0543,1.0492,1.0597,1.0613,1.0615,1.0661,1.0662,1.0663,1.0677,1.0676,1.0675,1.0675,1.0741,1.0744,1.0748,1.0783,0,0,1.0758,1.0759,0,0,0,0,0,0,0,0,1.054,1.0547,1.061,1.0612,1.0614,1.066,1.0649,1.0703,1.0677,1.0653,1.0675,1.0674,1.0716,1.0721,1.0735,1.0786,1.0789,1.0758,1.076,1.0762,1.0763,0,0,0,0,0,0,0,1.0537,1.0545,1.0623,1.0611,1.0613,1.0618,1.0625,1.0659,1.0688,1.0655,1.0657,1.0664,1.0717,1.0732,1.0737,1.079,1.0758,1.0761,1.0763,1.0765,1.0876,1.0877,0,0,0,0,0,0,1.053,1.0541,1.062,1.0624,1.0575,1.0621,1.0628,1.0646,1.0688,1.0693,1.0664,1.0664,1.0726,1.0733,1.0739,1.0785,1.0762,1.0765,1.0767,1.0875,1.0876,1.0877,0,0,0,0,0,0,1.0527,1.0537,1.0618,1.0583,1.0594,1.0623,1.0643,1.0648,1.0663,1.0694,1.07,1.0674,1.0726,1.0734,1.0773,1.0788,1.0766,1.077,1.0874,1.0876,1.0877,1.0876,0,0,0,0,0,0,1.0524,1.0536,1.0548,1.0583,1.0596,1.0649,1.0644,1.065,1.0668,1.0668,1.0705,1.071,1.0726,1.0767,1.0776,1.0792,1.0772,1.0873,1.0875,1.0876,1.0875,1.0877,1.0879,0,0,0,0,0,1.052,1.0545,1.0549,1.0558,1.0612,1.065,1.0657,1.0674,1.0669,1.0683,1.0704,1.0709,1.0784,1.0771,1.0781,1.0798,1.0872,1.0874,1.0876,1.0874,1.0877,1.0879,0,0,0,0,0,0,1.0511,1.055,1.0554,1.0591,1.0617,1.0652,1.067,1.0676,1.0705,1.0704,1.0725,1.0733,1.077,1.0788,1.0772,1.0836,1.0828,1.0832,1.0823,1.0826,1.0828,1.0824,1.0775,0,0,0,0,0,1.0513,1.054,1.0573,1.0602,1.0615,1.064,1.0657,1.0668,1.0696,1.0707,1.0731,1.0759,1.0789,1.0808,1.0837,1.0877,1.0887,1.0894,1.0896,1.0898,1.0902,1.0927,1.0931,1.0884,1.0884,1.0884,0,0,1.0518,1.0543,1.0558,1.0601,1.0622,1.0651,1.0649,1.0678,1.07,1.0712,1.075,1.0768,1.0801,1.084,1.0859,1.0856,1.0917,1.0901,1.0902,1.0905,1.0929,1.0934,1.0937,1.0886,1.0886,1.0885,0,0,1.0542,1.0562,1.059,1.0612,1.0644,1.0661,1.0668,1.0703,1.0715,1.0753,1.0764,1.079,1.0841,1.0865,1.0883,1.0918,1.0925,1.0927,1.0939,1.0963,1.0967,1.097,1.0985,1.099,1.0931,1.0931,1.0931,0,1.0544,1.0586,1.0604,1.0633,1.0653,1.0665,1.0695,1.0715,1.0756,1.077,1.0766,1.0832,1.0854,1.09,1.0909,1.0923,1.0933,1.0924,1.0965,1.0968,1.0972,1.0986,1.0991,1.0931,1.0931,1.0931,1.0931,0,1.0588,1.0618,1.0637,1.0676,1.0697,1.0727,1.075,1.077,1.078,1.0798,1.0839,1.0866,1.0903,1.0914,1.0924,1.0963,1.0961,1.096,1.0954,1.0976,1.099,1.0996,1.0931,1.0931,1.0931,1.0931,0,0,1.0607,1.0657,1.0664,1.0683,1.0721,1.0744,1.0776,1.0811,1.0829,1.0857,1.0885,1.0929,1.093,1.0951,1.0963,1.0984,1.1013,1.0982,1.0983,1.0989,1.1061,1.1062,1.1068,1.1018,1.1019,1.102,1.1059,0,1.0637,1.0692,1.071,1.0756,1.0785,1.0798,1.0825,1.0852,1.0871,1.0899,1.0919,1.0951,1.0948,1.0961,1.0983,1.1005,1.1029,1.1002,1.1046,1.1047,1.1039,1.1075,1.1075,1.1111,1.1064,1.1065,1.1066,0,1.0678,1.0708,1.0757,1.0794,1.0806,1.0831,1.0866,1.0892,1.0924,1.0936,1.096,1.0972,1.1007,1.0998,1.1047,1.1029,1.1048,1.1062,1.1064,1.107,1.1059,1.1083,1.1123,1.1129,1.1074,1.1074,1.1073,0,1.069,1.0742,1.0779,1.0794,1.0837,1.0854,1.0873,1.0904,1.0925,1.0956,1.0971,1.1005,1.1025,1.1052,1.1074,1.1064,1.1122,1.1114,1.1135,1.1135,1.1147,1.1146,1.1192,1.1157,1.1157,1.1157,1.1156,0,1.0722,1.0752,1.0785,1.0807,1.0843,1.0863,1.0898,1.0918,1.0946,1.0974,1.0987,1.1014,1.104,1.107,1.1087,1.1127,1.1135,1.1147,1.1152,1.1147,1.1146,1.116,1.1159,1.1158,1.1158,1.1157,1.1157,0,1.074,1.0763,1.0805,1.0842,1.0853,1.0877,1.091,1.0934,1.0953,1.0989,1.0998,1.1029,1.1066,1.109,1.1136,1.1148,1.1192,1.1195,1.1181,1.1184,1.1204,1.1203,1.1262,1.1272,1.1228,1.1229,1.1229,0,1.076,1.0784,1.0824,1.0844,1.0863,1.0894,1.0916,1.0939,1.0961,1.1001,1.102,1.1058,1.1089,1.1148,1.1175,1.1211,1.1216,1.1235,1.1222,1.1217,1.1219,1.1218,1.1222,1.1237,1.1237,1.1238,1.1238,0,1.0793,1.0803,1.0834,1.0869,1.0895,1.0924,1.0953,1.0969,1.0997,1.1022,1.1059,1.1084,1.1132,1.117,1.121,1.1231,1.124,1.1242,1.1249,1.1245,1.1237,1.1244,1.1189,1.124,1.124,1.124,1.124,1.124,1.0814,1.0837,1.0869,1.0904,1.0928,1.0956,1.0981,1.1003,1.1035,1.1076,1.1088,1.1128,1.1162,1.1216,1.1237,1.127,1.1268,1.1278,1.1281,1.1283,1.1285,1.123,1.1277,1.1277,1.1277,1.1277,1.1277,0,1.0849,1.0871,1.0903,1.0944,1.0971,1.0977,1.101,1.1033,1.1068,1.1099,1.113,1.1175,1.1212,1.1243,1.1282,1.1303,1.1308,1.1313,1.1312,1.1317,1.1283,1.1274,1.1308,1.1308,1.1308,1.1308,1.1308,1.1308,1.0871,1.0911,1.0925,1.0978,1.1,1.104,1.1058,1.1085,1.1109,1.1159,1.119,1.121,1.1241,1.1283,1.1319,1.1327,1.1342,1.1346,1.1355,1.1323,1.1319,1.1316,1.1308,1.1348,1.1348,1.1387,1.1387,1.1387]}]]